Location: Jaite
(41.2884°N, 81.5737°W)
Time: 00:32:01
(UTC+00:00)

Cosmos 2227 Rocket - Pass Details

Date: 18 January 2020
Orbit: 841 x 843 km, 71.0° (Epoch: 23 February)

Event Time Altitude Azimuth Distance (km) Brightness Sun altitude
Exits shadow 11:22:19 25° 284° (WNW) 1,641 3.1 -16.0°
Maximum altitude 11:23:52 29° 257° (WSW) 1,509 3.0 -15.7°
Drops below altitude 10° 11:28:37 10° 199° (SSW) 2,450 4.6 -14.9°
Sets 11:31:20 0° 189° (S) 3,380 5.4 -14.4°
